星链-2266 (STARLINK-2266 )

导读

STARLINK-2266是美国SpaceX公司星链星座的组网卫星,于2021年3月24日由猎鹰9号火箭发射入轨。星链项目旨在构建全球覆盖的低轨卫星互联网,为偏远地区、海洋航空等场景提供高速宽带服务,该卫星属于星链大规模组网的一部分,助力完成星座部署,支撑全球卫星互联网服务的拓展,目前星链星座已累计发射超万颗卫星,在轨运营超八千颗,持续推进全球覆盖计划。

基本信息
目录编号:
47997
目录名称:
STARLINK-2266
国际标识:
2021-024W
轨道中心:
EARTH
卫星名称:
星链-2266
卫星全名:
星链-2266 (STARLINK-2266 )
卫星状态:
在轨 (已飞行1990 天)
发射日期:
2021-03-24 UTC
国别 :
美国 (US)
星等 :
--
轨道信息
数据来源 国际轨道数据
星历时间: 2026-09-04T13:49:17+0800
7小时前
查看轨道信息
半长轴: 6848.845km
偏心率: 0.0001475
轨道倾角: 53.159°
近地点辐角 79.098°
升交点赤经 195.844°
平近点角 281.019°
近地点: 469.697km
远地点: 471.719km
周期: 94.013分钟
每日圈数: 15.31711
详细信息
固有亮度:
5
最大亮度:
2.5
卫星平台:
Starlink V1.0
覆盖范围:
全球
运营商:
太空探索技术公司
运营商所在国:
美国
制造商(研发单位):
太空探索技术公司
制造商所在国:
美国
使用方式:
暂无
卫星简介
星链(Starlink)计划是由太空探索技术公司(SpaceX)提出的一个巨型低轨卫星互联网星座项目,计划在2019年至2024年间在太空搭建由约1.2万颗卫星组成的“星链”网络,其中1584颗将部署在地球上空550千米处的近地轨道,并从2020年开始工作。该卫星仍在工作。
2D轨道图
3D轨道图
轨道高度分析图
轨道倾角分析图
轨道综合分析图
查看轨道综合分析图
交会数据列表
事件ID 空间交会对象 最接近时刻(TCA) 交会距离 交会风险概率(CRP) 交会风险指数(CRI) 操作
CDM_260905-132704-799705-304321
2026-09-05T
13:27:25+0000
0.791 km
远距离
5.522988E-5 中风险 0.7
CDM_260906-021104-799706-435921
2026-09-06T
02:11:11+0000
2.498 km
极远距离
1.491212E-6 低风险 0.38